Regional Weather Roundup
Issued by NWS

Home | Current Version | Previous Version | Graphics & Text | Print | Product List | Glossary On
Versions: 1 2 3 4 5 6 7 8 9 10 11 12 13 14 15 16 17 18 19 20 21 22 23 24 25 26 27 28 29 30 31 32 33 34 35 36 37 38 39 40 41 42 43 44 45 46 47 48 49 50
000
ASUS43 KLSX 281710
RWRMO

WEATHER SUMMARY FOR MISSOURI
NATIONAL WEATHER SERVICE SPRINGFIELD MO
1200 PM CDT THU APR 28 2016

NOTE: "FAIR" INDICATES FEW OR NO CLOUDS BELOW 12,000 FEET WITH NO
       SIGNIFICANT WEATHER AND/OR OBSTRUCTIONS TO VISIBILITY.
       CURRENT SKY AND/OR WEATHER CONDITIONS ARE NOT AVAILABLE FOR
       CHILLICOTHE AND FARMINGTON.

MOZ001>031-035>038-043-044-053-054-281800-
...NORTHERN AND WESTERN MISSOURI...

CITY           SKY/WX    TMP DP  RH WIND       PRES   REMARKS
KANSAS CTY INT CLOUDY    52  45  77 W8        29.96R
KANSAS C DTWN  CLOUDY    55  44  66 SW10      29.95R
LEE`S SUMMIT   MOSUNNY   55  45  68 VRB7G16   29.95R
ST JOSEPH      CLOUDY    52  46  80 W12       29.94R
CHILLICOTHE      N/A     54  49  83 W10G20    29.93R
KIRKSVILLE     CLOUDY    55  46  71 SW9G18    29.89R

$$
MOZ066>068-077>081-088>096-101>105-281800-
...SOUTHWEST MISSOURI...

CITY           SKY/WX    TMP DP  RH WIND       PRES   REMARKS
SPRINGFIELD    SUNNY     64  42  44 W6        29.95S
JOPLIN         SUNNY     62  44  51 NW6       29.97S
BRANSON        MOSUNNY   66  41  39 NW3       29.97S

$$
MOZ032>034-039>042-045>050-055>058-069>072-281800-
...CENTRAL MISSOURI...

CITY           SKY/WX    TMP DP  RH WIND       PRES   REMARKS
COLUMBIA       MOSUNNY   60  47  61 W12G21    29.93R
JEFFERSON CITY MOSUNNY   61  45  55 W12G21    29.92R
ROLLA          SUNNY     62  48  60 W13G21    29.91R
SEDALIA        PTSUNNY   58  48  69 W10       29.95R
WHITEMAN AFB   PTSUNNY   57  47  70 W13       29.94S
WARRENSBURG    CLOUDY    54  45  71 W7        29.96R
OSAGE BEACH    SUNNY     63  41  45 W10G17    29.93F

$$
MOZ051-052-059>065-281800-
...EAST CENTRAL MISSOURI...

CITY           SKY/WX    TMP DP  RH WIND       PRES   REMARKS
ST LOUIS INTL  MOSUNNY   68  49  50 W15       29.88R
SPIRIT OF STL  MOSUNNY   65  50  58 SW12      29.88R
ST CHARLES     SUNNY     65  49  56 W16G24    29.87R

$$
MOZ072>076-082>087-097>100-106>115-281800-
...SOUTH CENTRAL AND SOUTHEAST MISSOURI...

CITY           SKY/WX    TMP DP  RH WIND       PRES   REMARKS
CAPE GIRARDEAU SUNNY     71  54  54 SW13      29.89S
FARMINGTON     SUNNY     68  45  43 W13       29.90R
POPLAR BLUFF   SUNNY     72  45  37 SW13      29.91R
WEST PLAINS    SUNNY     70  42  36 W12G18    29.94S

$$




USA.gov is the U.S. government's official web portal to all federal, state and local government web resources and services.